FW1468 Weather Reports


time (UTC)temp
C
wind
direction
speed
KPH
gust
KPH
rain 1hr
cm
rain 24hr
cm
rain mn
cm
humidity
%
barometer
mb
20260504081557 -17 0.0 0.0 0.00 0.00 0.00 1011.0
20260504050014 3 129 0.0 0.0 0.00 0.00 0.00 83 1010.6
20260504044517 3 131 0.0 0.0 0.00 0.00 0.00 83 1010.6
20260504043014 3 130 0.0 0.0 0.00 0.00 0.00 82 1010.6
20260504041532 3 131 0.0 0.0 0.00 0.00 0.00 82 1010.7
20260504040010 3 130 0.0 0.0 0.00 0.00 0.00 80 1010.6
20260504034502 3 130 0.0 0.0 0.00 0.00 0.00 78 1010.6
20260504031502 5 130 0.0 0.0 0.00 0.00 0.00 77 1010.4
20260504030001 5 130 0.0 0.0 0.00 0.00 0.00 74 1010.3
20260504024558 5 130 0.0 0.0 0.00 0.00 0.00 73 1010.3
20260504023058 5 130 0.0 0.0 0.00 0.00 0.00 70 1010.4
20260504021558 6 130 0.0 0.0 0.00 0.00 0.00 67 1010.3
20260504020122 6 130 0.0 0.0 0.00 0.00 0.00 65 1010.2
20260504014559 7 130 0.0 0.0 0.00 0.00 0.00 60 1010.1
20260504013115 7 130 0.0 0.0 0.00 0.00 0.00 58 1010.1
20260504011554 8 130 0.0 0.0 0.00 0.00 0.00 54 1010.1
20260504010055 9 130 0.0 0.0 0.00 0.00 0.00 51 1009.9
20260504004553 10 128 0.0 1.6 0.00 0.00 0.00 50 1009.8
20260504003049 11 103 0.0 1.6 0.00 0.00 0.00 46 1009.6
20260504001550 11 35 0.0 1.6 0.00 0.00 0.00 44 1009.2
20260504000049 11 45 0.0 3.2 0.00 0.00 0.00 41 1009.0
20260503234548 12 163 0.0 4.8 0.00 0.00 0.00 38 1008.9
20260503233046 12 105 0.0 1.6 0.00 0.00 0.00 36 1008.8
20260503231548 12 286 0.0 4.8 0.00 0.00 0.00 34 1008.6
20260503230046 13 125 0.0 3.2 0.00 0.00 0.00 32 1008.5
20260503224547 13 128 0.0 6.4 0.00 0.00 0.00 32 1008.3
20260503223043 13 11 3.2 8.0 0.00 0.00 0.00 30 1008.3
20260503221556 13 83 0.0 11.3 0.00 0.00 0.00 30 1008.1
20260503220042 15 30 3.2 11.3 0.00 0.00 0.00 29 1008.2
20260503214542 14 58 0.0 14.5 0.00 0.00 0.00 29 1008.2
20260503213043 14 20 4.8 12.9 0.00 0.00 0.00 30 1008.1
20260503211537 14 13 6.4 11.3 0.00 0.00 0.00 31 1008.1
20260503210036 15 313 6.4 16.1 0.00 0.00 0.00 31 1008.1
20260503204534 14 90 6.4 20.9 0.00 0.00 0.00 31 1008.1
20260503203034 13 87 1.6 22.5 0.00 0.00 0.00 34 1008.2
20260503200026 12 68 8.0 29.0 0.00 0.00 0.00 35 1008.5
20260503194521 12 83 6.4 20.9 0.00 0.00 0.00 36 1008.7
20260503193056 12 9 11.3 22.5 0.00 0.00 0.00 36 1008.8
20260503191607 12 117 8.0 22.5 0.00 0.00 0.00 38 1009.0
20260503190041 12 123 3.2 14.5 0.00 0.00 0.00 40 1009.1
20260503184540 11 21 8.0 16.1 0.00 0.00 0.00 40 1009.3
20260503183038 11 32 3.2 17.7 0.00 0.00 0.00 40 1009.5
20260503181547 11 15 4.8 22.5 0.00 0.00 0.00 43 1009.7
20260503180006 10 291 8.0 14.5 0.00 0.00 0.00 42 1009.7
20260503174505 10 360 3.2 16.1 0.00 0.00 0.00 41 1009.7
20260503173005 11 81 3.2 19.3 0.00 0.00 0.00 42 1009.8
20260503171505 11 3 4.8 16.1 0.00 0.00 0.00 42 1009.9
20260503160108 10 136 4.8 17.7 0.00 0.00 0.00 41 1010.0